CZ-4C DEB, 43280

Orbit data source: Space-Track

CZ-4C DEB, 43280 is space debris in LEO originally from a launch on Tue, 10 Apr 2018 UTC launched from the Jiuquan Satellite Launch Center, China (JSC). Debris objects in space refer to the collection of defunct objects orbiting the Earth. Examples of debris include non-operational satellites, rocket bodies, and fragments generated from explosions, collisions, or faulty payload assembly.

Loading next visibility...
Identifier
43280, 2018-034F
Orbit
LEO
Last TLE update
18 hours ago
Origin
Manufacturer
Unknown
Mission
Spacecraft
Bus & Motor
Unknown
Mass
Unknown
Launch date (UTC)
2018-04-10 (7 years ago)
Launch vehicle
Unknown
Launch site
Jiuquan Satellite Launch Center, China (JSC)
Object type
Payload
Rocket body
Debris
Shape & HBR
Unknown
Radar Cross Section
Large (>1 m²)

Expand to show TLE details & history

TLE from 18 hours ago
0 CZ-4C DEB
1 43280U 18034F   25128.53457142  .00000093  00000-0  26614-3 0  9996
2 43280  63.4000  67.6756 0234633   6.0624 354.3154 13.44303952347449
Epoch: 2025-05-08T12:49Z
Definitive object data (Epoch: 2025-05-08T12:49:46.97Z)
Latitude
-0°
Longitude
8.62621°
Altitude
920.638 km
Speed
7.478 km/s
True Right ascension
04h 30m 42s
True Declination
0° 00' 00"
Sunlit
Object was in daylight at TLE epoch
Visualization TLE readout
Latitude
63.49709°
Longitude
94.22084°
Altitude
1,077.221 km
Speed
7.333 km/s
Apparent Right ascension
05h 49m 13s
Apparent Declination
26° 23' 35"
Sunlit
Object is in daylight
Visualization observer readout
Local Sidereal Time
15:15:27
Azimuth
324.859° NNW
Elevation
-14.649°
Doppler factor
1
Orbital elements
Apogee altitude
1,267.395 km
Perigee altitude
916.842 km
Semi-major axis
7,470.256 km
Eccentricity
0.0234633
Inclination
63.4°
RAAN
67.6756°
Arg. of periapsis
6.0624°
True anomaly
354.04108°
Mean anomaly
354.3154°
Eccentric anomaly
354.17906°
Mean motion
3.36155 °/min
BSTAR
0.00026614
Orbital period
107.09 mins
Loading maneuver chart data...
Loading SW <> Apogee altitude chart data...
Loading historical data...
Loading historical data...
Loading historical data...
Loading historical data...
Loading historical data...
Loading historical data...
Loading historical data...

CZ-4C DEB Visibility forecast

Observer location: undefined°, undefined°

Span
Click to sort rows by Start time (UTC) header in descending order
Start Az.
Max El. time (UTC)
Max El. Az.
Max El.
End time (UTC)
End Az.
13 mins2025-05-09 07:15:31.038Z312.617° NW2025-05-09 07:21:31.038Z243.438° WSW36.977°2025-05-09 07:28:31.038Z173.384° S
10 mins2025-05-09 21:05:31.038Z187.331° SSW2025-05-09 21:09:31.038Z133.385° SE37.865°2025-05-09 21:15:31.038Z44.376° NE
10 mins2025-05-09 22:56:31.038Z262.807° W2025-05-09 23:00:31.038Z311.632° NW27.119°2025-05-09 23:06:31.038Z18.816° NNE
11 mins2025-05-10 04:36:31.038Z347.181° N2025-05-10 04:41:31.038Z37.73° NE25.003°2025-05-10 04:47:31.038Z94.28° ESE
13 mins2025-05-10 06:27:31.038Z322.248° NNW2025-05-10 06:33:31.038Z200.694° SSW44.043°2025-05-10 06:40:31.038Z154.433° SSE
|